Location: Carrières
(48.9495°N, 2.0407°E)
Time: 08:18:43
(UTC+00:00)

Lacrosse 5 - Pass Details

Date: 28 January 2023
Orbit: 714 x 724 km, 57.0° (Epoch: 09 March)

Event Time Altitude Azimuth Distance (km) Brightness Sun altitude
Rises 18:37:20 0° 184° (S) 3,121 5.3 -18.8°
Reaches altitude 10° 18:40:19 10° 167° (SSE) 2,207 4.3 -19.3°
Enters shadow 18:42:20 17° 145° (SE) 1,795 3.6 -19.6°
